Location: Melbourne
(37.8120°S, 144.9677°E)
Time: 06:34:25
(UTC+10:00)

Daily predictions for brighter satellites

Satellite Brightness Start Highest point End
(mag) Time Altitude Azimuth Time Altitude Azimuth Time Altitude Azimuth
USA 267 3.9 17:32:03 10° E 17:38:00 38° SSE 17:43:59 10° SSW
ATLAS 5 CENTAUR R/B 3.0 17:32:26 10° NW 17:38:59 61° SW 17:45:10 10° SSE
GRACE-1 3.9 17:38:59 10° NNE 17:41:42 55° E 17:44:28 10° S
GRACE-2 3.9 17:39:26 10° NNE 17:42:07 54° E 17:44:54 10° S
ATLAS 2A CENTAUR R/B 3.8 17:42:48 10° NW 17:45:57 26° NNE 17:54:40 10° ENE
Cosmos 1733 Rocket 3.0 17:43:32 10° N 17:47:53 85° E 17:52:18 10° S
Cosmos 1408 3.8 17:45:13 10° NNW 17:48:46 45° W 17:52:25 10° S
Cosmos 1943 4.4 17:43:36 10° SSW 17:49:06 48° WNW 17:54:33 10° N
RESURS DK-1 2.8 17:47:55 10° SSW 17:52:05 68° WNW 17:56:12 10° NNE
DELTA 2 R/B (1) 3.7 17:47:26 10° W 17:53:06 74° S 17:58:46 10° E
Cosmos 1782 4.5 17:50:18 10° SSW 17:54:07 39° W 17:57:52 10° NNW
Cosmos 1908 Rocket 4.0 17:52:37 10° NNE 17:56:53 43° E 18:01:12 10° SSE
CZ-2C R/B 2.8 17:55:03 10° SSE 18:00:11 51° E 18:05:11 10° N
Cosmos 2084 3.7 17:57:20 10° NNW 18:01:57 67° ENE 18:06:50 10° SE
Cosmos 2263 Rocket 3.7 17:57:00 10° NW 18:02:11 35° WSW 18:07:27 10° S
Cosmos 1844 4.3 17:57:18 10° NNE 18:02:20 35° ENE 18:07:27 10° SE
ERS-2 4.0 18:02:46 10° S 18:06:07 31° WSW 18:09:27 10° NW
Cosmos 968 Rocket 4.1 18:01:24 10° NNW 18:06:35 60° WSW 18:11:47 10° S
Okean 2 Rocket 4.3 18:03:36 10° NE 18:07:00 22° E 18:10:15 11° SE
Cosmos 1674 Rocket 3.6 18:08:54 10° S 18:13:20 82° W 18:17:40 10° N
MSX 4.1 18:07:46 10° SSE 18:13:24 49° E 18:18:57 10° N
Cosmos 1782 Rocket 4.1 18:11:04 10° NNE 18:15:14 39° E 18:19:27 10° SSE
Cosmos 2266 Rocket 4.3 18:10:05 10° NNE 18:15:54 42° E 18:21:40 10° SSE
Cosmos 2278 Rocket 3.2 18:12:27 10° NNE 18:16:56 25° ENE 18:19:36 18° ESE
Cosmos 773 Rocket 4.1 18:12:09 10° S 18:17:26 57° ESE 18:22:35 10° NNE
Cosmos 292 Rocket 3.7 18:17:20 10° SSW 18:22:16 80° ESE 18:27:09 10° NNE
Cosmos 1812 3.6 18:18:57 10° SSE 18:22:21 27° ESE 18:25:44 10° NE
IDEFIX/ARIANE 42P 2.6 18:18:18 10° SSE 18:23:36 86° WSW 18:28:48 10° NNW
Sich 1 Rocket 3.6 18:21:07 10° N 18:25:40 89° WSW 18:30:13 10° S
CSL-04 Debris 4.1 18:21:44 10° SSE 18:27:14 86° ENE 18:32:42 10° NNW
Abrixas rocket 2.2 18:25:58 10° NW 18:29:14 67° NE 18:30:27 35° ESE
Cosmos 1553 Rocket 4.0 18:23:39 10° S 18:30:07 89° WNW 18:36:22 10° N
SJ-7 4.3 18:31:14 10° SSE 18:35:25 74° ENE 18:39:30 10° N
SPOT 3 Rocket 4.1 18:32:10 18° SE 18:35:34 36° E 18:40:18 10° NNE
OAO 3 Rocket 3.5 18:32:19 10° WNW 18:36:59 56° N 18:39:24 27° ENE
Cosmos 1340 2.9 18:35:04 10° SSW 18:38:56 74° W 18:42:44 10° N
COSMOS 2406 3.2 18:34:26 10° SSW 18:40:18 79° ESE 18:46:06 10° NNE
IRS-1A Rocket 4.2 18:34:44 10° SSE 18:40:20 78° ENE 18:45:55 10° N
Cosmos 1680 Rocket 3.8 18:35:45 10° S 18:40:54 44° ESE 18:45:57 10° NE
Meteor 1-18 Rocket 4.3 18:37:22 10° S 18:43:05 55° ESE 18:48:50 10° NNE
Cosmos 883 Rocket 4.5 18:38:40 10° S 18:44:49 57° E 18:50:50 10° NNE
Meteor 1-14 Rocket 4.3 18:39:23 10° N 18:45:21 89° W 18:51:16 10° S
Cosmos 2082 Rocket 4.1 18:46:52 10° SSE 18:47:54 13° SSE 18:47:54 13° SSE
Cosmos 1844 Rocket 3.1 18:45:59 10° NNW 18:51:36 64° WSW 18:57:15 10° SSE
YAOGAN 1 2.4 18:48:37 18° SSE 18:51:53 74° ENE 18:56:13 10° N
Lacrosse 5 3.4 18:48:19 10° SSW 18:51:49 21° SSE 18:51:49 21° SSE
Cosmos 1975 Rocket 3.0 18:50:31 10° S 18:55:02 85° E 18:59:33 10° N
Cosmos 1378 Rocket 4.5 18:50:50 10° SSW 18:55:11 51° W 18:59:31 10° NNW
Meteor 1-25 Rocket 4.2 18:49:36 10° N 18:55:23 83° E 19:01:19 10° S
CZ-4C R/B 3.0 18:50:58 10° NNW 18:58:41 56° ENE 19:02:04 32° SE
CZ-4 R/B 4.3 19:00:58 36° SSE 19:02:41 84° ENE 19:06:52 10° N
Cosmos 1484 Rocket 2.9 19:01:21 28° S 19:03:22 77° WSW 19:07:21 10° NNW
SEDSat Delta rocket 4.2 19:04:24 10° NW 19:07:52 27° NNE 19:07:58 27° NNE
CORIOLIS 4.3 19:02:39 10° S 19:08:06 74° WSW 19:13:27 10° NNW
SMAP 3.8 19:04:04 10° S 19:08:40 52° WSW 19:13:12 10° NNW
CZ-4 R/B 2.7 19:07:54 10° S 19:11:32 38° WSW 19:15:10 10° NW
Cosmos 1898 Rocket 3.7 19:10:26 10° N 19:15:08 52° NE 19:15:08 52° NE
Cosmos 967 Rocket 4.4 19:11:02 10° SSW 19:17:29 85° WNW 19:23:22 12° NNE
Cosmos 1244 Rocket 4.4 19:11:56 10° N 19:18:08 62° E 19:20:17 40° SSE
USA 267 3.5 19:14:21 11° NE 19:20:41 68° NW 19:27:17 10° SW
MOS 1 4.4 19:16:42 13° S 19:21:49 77° WSW 19:27:28 10° NNW
Aureole 1 Rocket 4.0 19:17:08 10° SSW 19:24:35 82° WNW 19:30:11 10° NNE
DELTA 2 R/B (1) 3.7 19:34:01 10° WSW 19:39:34 71° NNW 19:39:34 71° NNW
BREEZE-M DEB (TANK) 3.8 19:39:37 10° SW 19:42:57 73° NW 19:55:09 10° NE
Cosmos 2315 Rocket 4.4 19:41:52 10° SSW 19:48:01 60° W 19:54:07 10° N
Centaur D-1AR AC-36 4.4 19:56:43 10° NNW 19:57:19 12° NNW 19:57:19 12° NNW
Cosmos 2278 Rocket 3.2 19:55:21 10° NW 20:00:42 42° WSW 20:01:31 40° SW
CZ-4C R/B 4.1 20:40:36 10° WNW 20:47:19 35° SW 20:47:19 35° SW
